This is the latest recevied weather packets stored in our database for station/object KC0RPY. If no packets are shown the sender has not sent any weather packets the latest 10 day(s).
| Time | Temp. | Humidity | Pressure | Rain* | Wind** | Luminosity | Snow |
|---|---|---|---|---|---|---|---|
| 1777765683 | 17.22° C | 33% | 1019.5 hPa | 0 mm | - | 180 W/m² | - |
| 1777765380 | 17.22° C | 34% | 1019.5 hPa | 0 mm | - | 196 W/m² | - |
| 1777765076 | 17.22° C | 33% | 1019.5 hPa | 0 mm | - | 219 W/m² | - |
| 1777764773 | 17.22° C | 35% | 1019.5 hPa | 0 mm | - | 233 W/m² | - |
| 1777764468 | 17.22° C | 34% | 1019.5 hPa | 0 mm | - | 250 W/m² | - |
| 1777764160 | 17.78° C | 34% | 1019.5 hPa | 0 mm | - | 274 W/m² | - |
| 1777763857 | 17.22° C | 35% | 1019.5 hPa | 0 mm | - | 286 W/m² | - |
| 1777763555 | 17.22° C | 37% | 1020.2 hPa | 0 mm | - | 301 W/m² | - |
| 1777763253 | 17.22° C | 35% | 1019.5 hPa | 0 mm | - | 314 W/m² | - |
| 1777762951 | 17.22° C | 35% | 1019.8 hPa | 0 mm | - | 328 W/m² | - |
| 1777762647 | 17.22° C | 35% | 1019.5 hPa | 0 mm | - | 329 W/m² | - |
| 1777762344 | 17.22° C | 35% | 1019.8 hPa | 0 mm | - | 336 W/m² | - |
| 1777762040 | 17.78° C | 36% | 1019.8 hPa | 0 mm | - | 340 W/m² | - |
| 1777761737 | 17.22° C | 34% | 1019.8 hPa | 0 mm | - | 350 W/m² | - |
| 1777761435 | 17.22° C | 35% | 1019.8 hPa | 0 mm | - | 377 W/m² | - |
| 1777761133 | 17.22° C | 34% | 1019.5 hPa | 0 mm | - | 398 W/m² | - |
| 1777760830 | 17.78° C | 34% | 1019.8 hPa | 0 mm | - | 422 W/m² | - |
| 1777760527 | 17.22° C | 35% | 1020.2 hPa | 0 mm | - | 427 W/m² | - |
| 1777760223 | 16.67° C | 34% | 1020.2 hPa | 0 mm | - | 433 W/m² | - |
| 1777759920 | 17.22° C | 34% | 1020.2 hPa | 0 mm | - | 462 W/m² | - |
| 1777759616 | 17.22° C | 34% | 1020.2 hPa | 0 mm | - | 479 W/m² | - |
| 1777759312 | 17.22° C | 35% | 1019.8 hPa | 0 mm | - | 507 W/m² | - |
| 1777759009 | 17.22° C | 34% | 1020.2 hPa | 0 mm | - | 494 W/m² | - |
| 1777758706 | 16.67° C | 36% | 1020.2 hPa | 0 mm | - | 518 W/m² | - |
| 1777758403 | 17.22° C | 34% | 1020.2 hPa | 0 mm | - | 519 W/m² | - |
* Rain latest hour (hover to see other rain measurements)
** Current wind speed in m/s (hover to see current wind gust speed)